Time[GMT],wind_speed[m/s](-4m),wind_gust[m/s](-4m),wind_direction[degrees](-4m)
2003-09-25 15:00,,6.0,180
2003-09-25 16:00,,5.5,176
2003-09-25 17:00,,5.6,178
2003-09-25 18:00,,5.7,178
2003-09-25 19:00,,5.7,178
2003-09-25 20:00,,5.7,177
2003-09-25 21:00,,6.9,171
2003-09-25 22:00,,6.1,167
2003-09-25 23:00,,7.4,170
2003-09-26 00:00,,7.3,180
2003-09-26 01:00,,7.1,179
2003-09-26 02:00,,6.7,185
2003-09-26 03:00,,6.4,196
2003-09-26 04:00,,6.4,199
2003-09-26 05:00,,7.1,211
2003-09-26 06:00,,5.0,194
2003-09-26 07:00,,2.7,279
2003-09-26 08:00,,1.5,183
2003-09-26 09:00,,2.4,  9
2003-09-26 10:00,,3.4, 38
2003-09-26 11:00,,3.5, 45
2003-09-26 12:00,,3.1, 71
2003-09-26 13:00,,2.9, 73
2003-09-26 14:00,,2.7, 54
2003-09-26 15:00,,2.6, 36
2003-09-26 16:00,,2.0, 91
2003-09-26 17:00,,1.8, 66
2003-09-26 18:00,,2.2, 70
2003-09-26 19:00,,3.8, 93
2003-09-26 20:00,,3.7, 89
2003-09-26 21:00,,3.1, 77
2003-09-26 22:00,,3.1, 73
2003-09-26 23:00,,3.1, 81
2003-09-27 00:00,,2.6, 83
2003-09-27 01:00,,1.8, 80
2003-09-27 02:00,,1.9,109
2003-09-27 03:00,,1.1,342
2003-09-27 04:00,,0.6,342
2003-09-27 05:00,,1.1,342
2003-09-27 06:00,,1.6,357
2003-09-27 07:00,,1.6, 63
2003-09-27 08:00,,2.5, 31
2003-09-27 09:00,,3.1, 33
2003-09-27 10:00,,4.0,102
2003-09-27 11:00,,2.4, 57
2003-09-27 12:00,,1.8, 92
2003-09-27 13:00,,3.3,103
2003-09-27 14:00,,3.5,132
2003-09-27 15:00,,4.4,137
2003-09-27 16:00,,2.7,118
2003-09-27 17:00,,2.9,121
2003-09-27 18:00,,3.4,117
2003-09-27 19:00,,3.9,105
2003-09-27 20:00,,4.4,112
2003-09-27 21:00,,4.0,117
2003-09-27 22:00,,3.8,113
2003-09-27 23:00,,3.5,109
2003-09-28 00:00,,4.1,113
2003-09-28 01:00,,5.6,125
2003-09-28 02:00,,4.6,122
2003-09-28 03:00,,3.5, 90
2003-09-28 04:00,,3.1, 79
2003-09-28 05:00,,3.5,102
2003-09-28 06:00,,2.9,111
2003-09-28 07:00,,4.9,122
2003-09-28 08:00,,3.6,110
2003-09-28 09:00,,6.9,134
2003-09-28 10:00,,9.3,132
2003-09-28 11:00,,8.8,133
2003-09-28 12:00,,9.5,132
2003-09-28 13:00,,9.2,132
2003-09-28 14:00,,9.1,132
2003-09-28 15:00,,8.6,137
2003-09-28 16:00,,7.5,135
2003-09-28 17:00,,7.8,133
2003-09-28 18:00,,7.6,133
2003-09-28 19:00,,7.6,132
2003-09-28 20:00,,7.5,132
2003-09-28 21:00,,11.1,123
2003-09-28 22:00,,5.8,140
2003-09-28 23:00,,5.9,150
2003-09-29 00:00,,5.4,121
2003-09-29 01:00,,5.7,134
2003-09-29 02:00,,3.0,124
2003-09-29 03:00,,2.4,319
2003-09-29 04:00,,2.6,275
2003-09-29 05:00,,2.3,272
2003-09-29 06:00,,4.0,206
2003-09-29 07:00,,5.9,220
2003-09-29 08:00,,3.6,221
2003-09-29 09:00,,2.6,211
2003-09-29 10:00,,3.6,181
2003-09-29 11:00,,6.2,199
2003-09-29 12:00,,7.1,207
2003-09-29 13:00,,6.9,224
2003-09-29 14:00,,7.5,213
2003-09-29 15:00,,5.5,227
2003-09-29 16:00,,4.0,232
2003-09-29 17:00,,3.2,183
2003-09-29 18:00,,3.5,201
2003-09-29 19:00,,3.3,203
2003-09-29 20:00,,2.9,190
2003-09-29 21:00,,2.6,212
2003-09-29 22:00,,2.5,192
2003-09-29 23:00,,3.1,236
2003-09-30 00:00,,3.3,230
2003-09-30 01:00,,5.8,242
2003-09-30 02:00,,8.2,256
2003-09-30 03:00,,6.1,258
2003-09-30 04:00,,6.1,263
2003-09-30 05:00,,4.8,263
2003-09-30 06:00,,3.8,279
2003-09-30 07:00,,1.8,237
2003-09-30 08:00,,4.5,257
2003-09-30 09:00,,5.5,266
2003-09-30 10:00,,5.4,273
2003-09-30 11:00,,4.4,259
2003-09-30 12:00,,3.7,279
2003-09-30 13:00,,2.5,259
2003-09-30 14:00,,2.7,249
2003-09-30 15:00,,3.1,226
2003-09-30 16:00,,4.2,237
2003-09-30 17:00,,4.2,224
2003-09-30 18:00,,4.5,228
2003-09-30 19:00,,5.4,236
2003-09-30 20:00,,5.3,239
2003-09-30 21:00,,5.2,232
2003-09-30 22:00,,4.7,228
2003-09-30 23:00,,4.9,232
2003-10-01 14:00,,2.6,176
2003-10-02 00:00,,2.7,174
2003-10-02 01:00,,2.7,174
2003-10-02 02:00,,2.0,181
2003-10-02 03:00,,0.9,342
2003-10-02 04:00,,1.2,200
2003-10-02 05:00,,4.0,180
2003-10-02 06:00,,4.7,167
2003-10-02 07:00,,5.1,233
2003-10-02 11:00,,1.5,229
2003-10-02 12:00,,2.8,137
2003-10-02 13:00,,2.9,173
2003-10-02 14:00,,3.8,156
2003-10-02 15:00,,5.4,157
2003-10-02 16:00,,6.3,174
2003-10-02 17:00,,7.9,252
2003-10-02 18:00,,6.3,258
2003-10-02 19:00,,3.9,141
2003-10-02 20:00,,3.9,129
2003-10-02 21:00,,3.8,180
2003-10-02 22:00,,4.5,207
2003-10-02 23:00,,3.8,183
2003-10-03 00:00,,2.9,219
2003-10-03 01:00,,3.0,231
2003-10-03 02:00,,13.4,294
2003-10-03 03:00,,11.4,304
2003-10-03 04:00,,10.1,301
2003-10-03 05:00,,11.6,273
2003-10-03 06:00,,11.9,293
2003-10-03 07:00,,12.0,285
2003-10-03 08:00,,13.7,289
2003-10-03 09:00,,12.6,284
2003-10-03 10:00,,13.1,285
2003-10-03 11:00,,14.3,298
2003-10-03 12:00,,12.7,298
2003-10-03 13:00,,10.3,301
2003-10-03 14:00,,10.5,290
2003-10-03 15:00,,8.1,291
2003-10-03 16:00,,7.9,289
2003-10-03 17:00,,7.9,251
2003-10-03 18:00,,8.7,238
2003-10-03 19:00,,9.0,232
2003-10-03 20:00,,9.9,238
2003-10-03 21:00,,9.5,232
2003-10-03 22:00,,7.9,233
2003-10-03 23:00,,7.9,231
2003-10-04 00:00,,7.3,224
2003-10-04 01:00,,6.7,217
2003-10-04 02:00,,6.7,213
2003-10-04 03:00,,8.1,207
2003-10-04 04:00,,7.2,212
2003-10-04 05:00,,6.5,206
2003-10-04 06:00,,7.4,206
2003-10-04 07:00,,7.6,200
2003-10-04 08:00,,6.9,209
2003-10-04 09:00,,7.5,198
2003-10-04 10:00,,6.7,197
2003-10-04 11:00,,8.9,180
2003-10-04 12:00,,10.3,180
2003-10-04 13:00,,10.2,172
2003-10-04 14:00,,10.9,173
2003-10-04 15:00,,10.0,173
2003-10-04 16:00,,12.5,157
2003-10-04 17:00,,11.8,163
2003-10-04 18:00,,12.6,155
2003-10-04 20:00,,13.7,147
2003-10-04 21:00,,14.4,151
2003-10-04 22:00,,14.2,154
2003-10-04 23:00,,14.5,154
2003-10-05 00:00,,15.5,167
2003-10-05 01:00,,12.0,207
2003-10-05 02:00,,11.6,216
2003-10-05 03:00,,9.3,215
2003-10-05 04:00,,8.9,221
2003-10-05 05:00,,6.5,220
2003-10-05 06:00,,8.6,232
2003-10-05 07:00,,7.9,238
2003-10-05 08:00,,8.7,256
2003-10-05 09:00,,8.0,253
2003-10-05 10:00,,6.6,268
2003-10-05 11:00,,6.3,273
2003-10-05 12:00,,7.2,275
2003-10-05 13:00,,6.9,261
2003-10-05 14:00,,7.2,270
2003-10-05 15:00,,7.0,256
2003-10-05 16:00,,7.2,259
2003-10-05 17:00,,8.7,249
2003-10-05 18:00,,8.7,252
2003-10-05 19:00,,9.3,252
2003-10-05 20:00,,8.7,249
2003-10-05 21:00,,10.6,242
2003-10-05 22:00,,11.4,253
2003-10-05 23:00,,10.9,262
2003-10-06 00:00,,9.1,267
2003-10-06 01:00,,7.2,263
2003-10-06 02:00,,4.7,336
2003-10-06 03:00,,6.5,317
2003-10-06 04:00,,4.8,315
2003-10-06 05:00,,6.4,305
2003-10-06 06:00,,7.5,304
2003-10-06 07:00,,5.7,291
2003-10-06 08:00,,6.1,299
2003-10-06 09:00,,5.1,293
2003-10-06 10:00,,5.2,298
2003-10-06 11:00,,5.8,272
2003-10-06 12:00,,6.7,281
2003-10-06 13:00,,6.1,289
2003-10-06 14:00,,5.6,318
2003-10-06 15:00,,5.4,311
2003-10-06 16:00,,4.3,312
2003-10-06 17:00,,3.2,301
2003-10-06 18:00,,6.0,285
2003-10-06 19:00,,7.5,290
2003-10-06 20:00,,6.7,317
2003-10-06 21:00,,7.5,322
2003-10-06 22:00,,5.1,326
2003-10-06 23:00,,6.8,339
2003-10-07 00:00,,7.3,347
2003-10-07 01:00,,5.8,343
2003-10-07 02:00,,7.6,359
2003-10-07 03:00,,7.0,344
2003-10-07 04:00,,6.5,320
2003-10-07 05:00,,7.7,318
2003-10-07 06:00,,7.5,316
2003-10-07 07:00,,6.6,305
2003-10-07 08:00,,6.7,306
2003-10-07 09:00,,7.4,312
2003-10-07 10:00,,7.8,309
2003-10-07 11:00,,7.3,311
2003-10-07 12:00,,5.6,303
2003-10-07 13:00,,5.3,303
2003-10-07 14:00,,4.5,288
2003-10-07 15:00,,6.0,259
2003-10-07 16:00,,6.9,263
2003-10-07 17:00,,8.6,251
2003-10-07 18:00,,9.3,250
2003-10-07 19:00,,9.7,243
2003-10-07 20:00,,9.8,242
2003-10-07 21:00,,9.7,237
2003-10-07 22:00,,11.0,233
2003-10-07 23:00,,9.8,235
2003-10-08 00:00,,9.8,232
2003-10-08 01:00,,8.9,228
2003-10-08 02:00,,8.6,225
2003-10-08 03:00,,8.9,225
2003-10-08 04:00,,7.7,221
2003-10-08 05:00,,7.8,224
2003-10-08 06:00,,7.2,228
2003-10-08 07:00,,7.0,225
2003-10-08 08:00,,7.1,240
2003-10-08 09:00,,7.6,250
2003-10-08 10:00,,5.5,249
2003-10-08 11:00,,5.4,244
2003-10-08 12:00,,5.1,253
2003-10-08 13:00,,4.9,245
2003-10-08 14:00,,4.2,225
2003-10-08 15:00,,5.9,235
2003-10-08 16:00,,6.3,230
2003-10-08 17:00,,6.2,223
2003-10-08 18:00,,8.1,225
2003-10-08 19:00,,7.0,229
2003-10-08 20:00,,7.2,223
2003-10-08 21:00,,7.1,227
2003-10-08 22:00,,7.4,229
2003-10-08 23:00,,7.5,229
2003-10-09 00:00,,5.2,243
2003-10-09 01:00,,4.8,248
2003-10-09 02:00,,5.0,236
2003-10-09 03:00,,3.7,251
2003-10-09 04:00,,4.7,252
2003-10-09 05:00,,4.2,257
2003-10-09 06:00,,5.6,259
2003-10-09 07:00,,4.9,253
2003-10-09 08:00,,5.1,276
2003-10-09 10:00,,5.8,289
2003-10-09 11:00,,3.4,284
2003-10-09 13:00,,3.6,341
2003-10-09 14:00,,4.7, 20
2003-10-09 15:00,,4.0, 21
2003-10-09 16:00,,5.4, 62
2003-10-09 17:00,,4.5, 88
2003-10-09 18:00,,5.1, 95
2003-10-09 19:00,,4.9,117
2003-10-09 20:00,,4.1,126
2003-10-09 21:00,,2.9,131
2003-10-09 22:00,,2.3,142
2003-10-09 23:00,,1.6,319
2003-10-10 00:00,,2.1, 69
2003-10-10 01:00,,2.8, 71
2003-10-10 02:00,,1.7, 76
2003-10-10 03:00,,1.7,178
2003-10-10 04:00,,3.7, 39
2003-10-10 05:00,,4.0, 48
2003-10-10 06:00,,4.9, 51
2003-10-10 07:00,,4.0, 63
2003-10-10 08:00,,2.4, 44
2003-10-10 09:00,,2.4, 36
2003-10-10 10:00,,2.4, 43
2003-10-10 11:00,,2.8, 47
2003-10-10 12:00,,3.1, 44
2003-10-10 13:00,,3.5, 37
2003-10-10 14:00,,3.8, 54
2003-10-10 15:00,,3.9, 72
2003-10-10 17:00,,3.8,115
2003-10-10 18:00,,3.3,117
2003-10-10 19:00,,3.2,133
2003-10-10 20:00,,3.9,155
2003-10-10 21:00,,2.2,140
2003-10-10 22:00,,1.1,140
2003-10-10 23:00,,0.7,342
2003-10-11 00:00,,1.4,205
2003-10-11 01:00,,1.1,342
2003-10-11 02:00,,0.8,342
2003-10-11 03:00,,1.6,342
2003-10-11 04:00,,2.2,288
2003-10-11 05:00,,2.5,347
2003-10-11 06:00,,2.4,340
2003-10-11 07:00,,0.7,342
2003-10-11 08:00,,2.8, 11
2003-10-11 09:00,,2.7, 49
2003-10-11 10:00,,1.4,342
2003-10-11 11:00,,1.3,342
2003-10-11 12:00,,0.9,342
2003-10-11 13:00,,1.1,342
2003-10-11 14:00,,0.5,342
2003-10-11 15:00,,1.1,342
2003-10-11 16:00,,1.0,342
2003-10-11 17:00,,1.4, 59
2003-10-11 18:00,,2.7,218
2003-10-11 19:00,,2.0,232
2003-10-11 20:00,,2.2,214
2003-10-11 21:00,,2.2,245
2003-10-11 22:00,,2.2,263
2003-10-11 23:00,,1.9,260
2003-10-12 00:00,,1.9,305
2003-10-12 01:00,,2.4,329
2003-10-12 02:00,,1.3,342
2003-10-12 03:00,,3.8,203
2003-10-12 04:00,,1.6,342
2003-10-12 05:00,,1.8,288
2003-10-12 06:00,,0.8,342
2003-10-12 07:00,,0.4,342
2003-10-12 08:00,,0.7,342
2003-10-12 09:00,,0.7,342
2003-10-12 10:00,,1.1,342
2003-10-12 11:00,,2.0, 17
2003-10-12 12:00,,2.5, 37
2003-10-12 13:00,,3.1, 43
2003-10-12 14:00,,3.3, 67
2003-10-12 15:00,,3.5, 67
2003-10-12 16:00,,3.9, 61
2003-10-12 17:00,,3.6, 62
2003-10-12 18:00,,4.3, 50
2003-10-12 19:00,,4.5, 65
2003-10-12 20:00,,6.5, 72
2003-10-12 21:00,,5.8, 76
2003-10-12 22:00,,5.6, 70
2003-10-12 23:00,,6.9, 81
2003-10-13 00:00,,7.6, 98
2003-10-13 01:00,,6.7,106
2003-10-13 02:00,,6.6,118
2003-10-13 03:00,,7.3,119
2003-10-13 04:00,,6.5,128
2003-10-13 05:00,,5.4,121
2003-10-13 06:00,,2.7,144
2003-10-13 07:00,,4.9,358
2003-10-13 08:00,,5.9,  5
2003-10-13 09:00,,6.4,345
2003-10-13 10:00,,7.4,353
2003-10-13 11:00,,5.5,343
2003-10-13 12:00,,6.9,332
2003-10-13 13:00,,8.7,329
2003-10-13 14:00,,8.5,321
2003-10-13 15:00,,8.9,326
2003-10-13 16:00,,8.2,332
2003-10-13 17:00,,6.8,328
2003-10-13 18:00,,7.2,321
2003-10-13 19:00,,6.6,330
2003-10-13 20:00,,5.7,323
2003-10-13 21:00,,3.3,317
2003-10-13 22:00,,3.0,333
2003-10-13 23:00,,2.3,283
2003-10-14 00:00,,6.5,318
2003-10-14 01:00,,7.1,329
2003-10-14 02:00,,9.6,332
2003-10-14 03:00,,6.9,334
2003-10-14 04:00,,5.3,318
2003-10-14 05:00,,4.5,303
2003-10-14 06:00,,5.0,309
2003-10-14 07:00,,5.3,309
2003-10-14 08:00,,4.8,307
2003-10-14 09:00,,4.5,309
2003-10-14 10:00,,3.7,329
2003-10-14 11:00,,3.5,326
2003-10-14 12:00,,3.6,337
2003-10-14 13:00,,2.7,341
2003-10-14 14:00,,1.4,342
2003-10-14 15:00,,1.8, 25
2003-10-14 16:00,,1.1,342
2003-10-14 17:00,,1.3,342
2003-10-14 18:00,,1.8,182
2003-10-14 19:00,,1.5,196
2003-10-14 20:00,,2.4,195
2003-10-14 21:00,,2.9,171
2003-10-14 22:00,,3.9,165
2003-10-14 23:00,,4.3,158
2003-10-15 00:00,,4.4,137
2003-10-15 01:00,,5.2,143
2003-10-15 02:00,,6.0,136
2003-10-15 03:00,,6.0,141
2003-10-15 04:00,,6.9,142
2003-10-15 05:00,,8.4,144
2003-10-15 06:00,,10.4,138
2003-10-15 07:00,,12.5,138
2003-10-15 08:00,,12.2,123
2003-10-15 09:00,,13.3,117
2003-10-15 10:00,,13.6,120
2003-10-15 11:00,,14.0,122
2003-10-15 12:00,,16.0,125
2003-10-15 13:00,,18.5,120
2003-10-15 14:00,,20.4,130
2003-10-15 15:00,,20.6,139
2003-10-15 16:00,,19.1,149
2003-10-15 17:00,,13.2,182
2003-10-15 18:00,,11.0,201
2003-10-15 19:00,,12.8,196
2003-10-15 20:00,,12.7,201
2003-10-15 21:00,,13.8,215
2003-10-15 22:00,,14.2,216
2003-10-15 23:00,,16.2,220
2003-10-16 00:00,,17.1,227
2003-10-16 01:00,,16.4,228
2003-10-16 02:00,,16.9,250
2003-10-16 03:00,,15.8,251
2003-10-16 04:00,,17.0,263
2003-10-16 05:00,,16.8,261
2003-10-16 06:00,,16.2,254
2003-10-16 07:00,,16.7,260
2003-10-16 08:00,,13.2,273
2003-10-16 09:00,,16.8,281
2003-10-16 10:00,,15.7,264
2003-10-16 11:00,,15.5,263
2003-10-16 12:00,,14.6,270
2003-10-16 13:00,,13.8,279
2003-10-16 14:00,,13.7,274
2003-10-16 15:00,,14.7,279
2003-10-16 16:00,,11.4,265
2003-10-16 17:00,,12.2,251
2003-10-16 18:00,,12.9,252
2003-10-16 19:00,,12.3,254
2003-10-16 20:00,,12.1,243
2003-10-16 21:00,,15.1,243
2003-10-16 22:00,,7.2,232
2003-10-16 23:00,,13.0,265
2003-10-17 00:00,,10.0,299
2003-10-17 01:00,,10.7,303
2003-10-17 02:00,,9.7,315
2003-10-17 03:00,,9.4,309
2003-10-17 04:00,,8.1,317
2003-10-17 05:00,,5.7,318
2003-10-17 06:00,,9.3,320
2003-10-17 07:00,,5.4,301
2003-10-17 08:00,,6.3,294
2003-10-17 09:00,,7.4,304
2003-10-17 10:00,,7.4,282
2003-10-17 11:00,,8.3,287
2003-10-17 12:00,,8.9,298
2003-10-17 13:00,,8.6,300
2003-10-17 14:00,,8.6,301
2003-10-17 15:00,,7.8,291
2003-10-17 16:00,,8.4,289
2003-10-17 17:00,,8.7,278
2003-10-17 18:00,,8.4,258
2003-10-17 19:00,,8.9,251
2003-10-17 20:00,,9.4,243
2003-10-17 21:00,,9.4,241
2003-10-17 22:00,,8.5,243
2003-10-17 23:00,,7.4,248
2003-10-18 00:00,,7.6,245
2003-10-18 01:00,,6.9,234
2003-10-18 02:00,,9.5,207
2003-10-18 03:00,,6.0,274
2003-10-18 04:00,,2.6, 16
2003-10-18 05:00,,2.9, 38
2003-10-18 06:00,,4.4, 37
2003-10-18 07:00,,2.7, 24
2003-10-18 08:00,,3.3,243
2003-10-18 09:00,,6.7,225
2003-10-18 10:00,,4.2,235
2003-10-18 11:00,,3.1,209
2003-10-18 12:00,,3.1,190
2003-10-18 13:00,,2.0,164
2003-10-18 14:00,,0.4,342
2003-10-18 15:00,,7.0, 17
2003-10-18 16:00,,7.4, 18
2003-10-18 17:00,,7.1, 24
2003-10-18 18:00,,6.0, 26
2003-10-18 19:00,,4.6, 36
2003-10-18 20:00,,4.9, 37
2003-10-18 21:00,,5.1, 43
2003-10-18 22:00,,5.3, 91
2003-10-18 23:00,,5.1, 79
2003-10-19 00:00,,4.1, 61
2003-10-19 01:00,,4.3, 35
2003-10-19 02:00,,3.8,  9
2003-10-19 03:00,,4.6,321
2003-10-19 04:00,,4.3,304
2003-10-19 05:00,,5.3,309
2003-10-19 06:00,,5.8,339
2003-10-19 07:00,,7.2, 30
2003-10-19 08:00,,7.1, 39
2003-10-19 09:00,,8.1, 30
2003-10-19 10:00,,8.7, 29
2003-10-19 11:00,,9.0, 26
2003-10-19 12:00,,8.6, 27
2003-10-19 13:00,,6.0, 17
2003-10-19 14:00,,5.7,333
2003-10-19 15:00,,4.2,  1
2003-10-19 16:00,,6.5,  6
2003-10-19 17:00,,4.8,350
2003-10-19 18:00,,5.8,  0
2003-10-19 19:00,,4.0,341
2003-10-19 20:00,,3.3,324
2003-10-19 21:00,,5.2,  1
2003-10-19 22:00,,6.0,349
2003-10-19 23:00,,6.9,339
2003-10-20 00:00,,6.0,346
2003-10-20 01:00,,7.0,338
2003-10-20 02:00,,7.4,332
2003-10-20 03:00,,7.3,345
2003-10-20 04:00,,7.2,333
2003-10-20 05:00,,9.2,332
2003-10-20 06:00,,11.2,348
2003-10-20 07:00,,11.2,326
2003-10-20 08:00,,9.1,315
2003-10-20 09:00,,9.1,331
2003-10-20 10:00,,11.7,318
2003-10-20 11:00,,11.0,323
2003-10-20 12:00,,8.5,328
2003-10-20 13:00,,6.9,317
2003-10-20 14:00,,7.6,305
2003-10-20 15:00,,8.0,292
2003-10-20 16:00,,10.2,269
2003-10-20 17:00,,9.7,266
2003-10-20 18:00,,9.6,263
2003-10-20 19:00,,13.2,251
2003-10-20 20:00,,11.7,243
2003-10-20 21:00,,10.2,247
2003-10-20 22:00,,10.3,255
2003-10-20 23:00,,9.9,251
2003-10-21 00:00,,9.8,247
2003-10-21 01:00,,9.1,242
2003-10-21 02:00,,9.6,244
2003-10-21 03:00,,7.9,247
2003-10-21 04:00,,8.0,232
2003-10-21 05:00,,6.6,212
2003-10-21 06:00,,7.2,228
2003-10-21 07:00,,5.1,224
2003-10-21 08:00,,5.5,214
2003-10-21 09:00,,5.4,172
2003-10-21 10:00,,8.6,167
2003-10-21 11:00,,11.3,162
2003-10-21 12:00,,12.9,168
2003-10-21 13:00,,14.9,182
2003-10-21 14:00,,13.8,190
2003-10-21 15:00,,11.8,192
2003-10-21 16:00,,15.2,201
2003-10-21 17:00,,16.3,202
2003-10-21 18:00,,14.8,201
2003-10-21 19:00,,15.2,198
2003-10-21 20:00,,13.4,208
2003-10-21 21:00,,13.8,212
2003-10-21 22:00,,13.1,217
2003-10-21 23:00,,12.0,244
2003-10-22 00:00,,9.4,307
2003-10-22 01:00,,10.4,336
2003-10-22 02:00,,8.5,331
2003-10-22 03:00,,10.5,  7
2003-10-22 04:00,,10.8,  5
2003-10-22 05:00,,10.0, 11
2003-10-22 06:00,,11.1, 19
2003-10-22 07:00,,10.8, 19
2003-10-22 08:00,,12.0, 26
2003-10-22 09:00,,11.2, 21
2003-10-22 10:00,,11.1, 34
2003-10-22 11:00,,11.1, 28
2003-10-22 12:00,,10.9, 29
2003-10-22 13:00,,11.3, 22
2003-10-22 14:00,,11.2, 28
2003-10-22 15:00,,11.2, 19
2003-10-22 16:00,,11.2, 32
2003-10-22 17:00,,11.6, 28
2003-10-22 18:00,,11.4, 22
2003-10-22 19:00,,11.1, 15
2003-10-22 20:00,,11.6, 16
2003-10-22 21:00,,12.5, 13
2003-10-22 22:00,,12.7, 15
2003-10-22 23:00,,12.7, 17
2003-10-23 00:00,,12.4, 17
2003-10-23 01:00,,12.5, 18
2003-10-23 02:00,,12.2, 20
2003-10-23 03:00,,12.7, 12
2003-10-23 04:00,,13.1, 13
2003-10-23 05:00,,13.2, 16
2003-10-23 06:00,,13.7, 15
2003-10-23 07:00,,13.2, 15
2003-10-23 08:00,,13.4,  8
2003-10-23 09:00,,12.9,  8
2003-10-23 10:00,,12.2,  5
2003-10-23 11:00,,11.8,  6
2003-10-23 12:00,,10.5,358
2003-10-23 13:00,,10.5,350
2003-10-23 14:00,,8.5,346
2003-10-23 15:00,,6.4,347
2003-10-23 16:00,,5.3,340
2003-10-23 17:00,,4.3,312
2003-10-23 18:00,,5.5,308
2003-10-23 19:00,,5.3,324
2003-10-23 20:00,,7.8,298
2003-10-23 21:00,,7.9,294
2003-10-23 22:00,,10.9,327
2003-10-23 23:00,,11.7,318
2003-10-24 00:00,,12.0,316
2003-10-24 01:00,,10.9,309
2003-10-24 02:00,,11.7,301
2003-10-24 03:00,,11.0,298
2003-10-24 04:00,,10.9,295
2003-10-24 05:00,,12.0,278
2003-10-24 06:00,,11.7,272
2003-10-24 07:00,,12.7,280
2003-10-24 08:00,,12.5,278
2003-10-24 09:00,,10.6,277
2003-10-24 10:00,,12.0,287
2003-10-24 11:00,,12.2,288
2003-10-24 12:00,,12.3,294
2003-10-24 13:00,,11.4,287
2003-10-24 14:00,,10.3,289
2003-10-24 15:00,,11.1,292
2003-10-24 16:00,,10.1,291
2003-10-24 17:00,,9.4,302
2003-10-24 18:00,,11.8,304
2003-10-24 19:00,,11.2,307
2003-10-24 20:00,,11.1,318
2003-10-24 21:00,,11.6,313
2003-10-24 22:00,,11.8,325
2003-10-24 23:00,,11.7,328
2003-10-25 00:00,,11.1,313
2003-10-25 01:00,,11.6,311
2003-10-25 02:00,,11.0,316
2003-10-25 03:00,,9.9,322
2003-10-25 04:00,,9.2,316
2003-10-25 05:00,,9.1,303
2003-10-25 06:00,,8.6,294
2003-10-25 07:00,,8.8,304
2003-10-25 08:00,,7.9,302
2003-10-25 09:00,,7.1,319
2003-10-25 10:00,,6.0,315
2003-10-25 11:00,,7.2,315
2003-10-25 12:00,,4.7,326
2003-10-25 13:00,,3.8,299
2003-10-25 14:00,,2.8,247
2003-10-25 15:00,,4.3,226
2003-10-25 16:00,,5.9,233
2003-10-25 17:00,,6.9,233
2003-10-25 18:00,,8.4,231
2003-10-25 19:00,,8.5,226
2003-10-25 20:00,,8.7,227
2003-10-25 21:00,,10.2,215
2003-10-25 22:00,,10.6,212
2003-10-25 23:00,,10.7,214
2003-10-26 00:00,,11.7,210
2003-10-26 01:00,,11.0,216
2003-10-26 02:00,,11.0,210
2003-10-26 03:00,,12.0,212
2003-10-26 04:00,,10.5,219
2003-10-26 05:00,,11.0,215
2003-10-26 06:00,,11.1,210
2003-10-26 07:00,,10.8,204
2003-10-26 08:00,,10.0,206
2003-10-26 09:00,,9.5,208
2003-10-26 10:00,,7.6,220
2003-10-26 11:00,,8.2,210
2003-10-26 12:00,,7.5,201
2003-10-26 13:00,,9.2,204
2003-10-26 14:00,,10.0,202
2003-10-26 15:00,,10.2,194
2003-10-26 16:00,,10.8,193
2003-10-26 17:00,,12.2,190
2003-10-26 18:00,,13.1,193
2003-10-26 19:00,,12.7,196
2003-10-26 20:00,,10.7,199
2003-10-26 21:00,,12.2,196
2003-10-26 22:00,,12.6,198
2003-10-26 23:00,,11.5,199
2003-10-27 00:00,,10.6,198
2003-10-27 01:00,,10.1,209
2003-10-27 02:00,,10.7,199
2003-10-27 03:00,,11.2,194
2003-10-27 04:00,,12.0,194
2003-10-27 05:00,,13.2,195
2003-10-27 06:00,,12.7,195
2003-10-27 07:00,,13.2,195
2003-10-27 08:00,,11.9,195
2003-10-27 09:00,,11.6,193
2003-10-27 10:00,,11.2,192
2003-10-27 11:00,,10.0,196
2003-10-27 12:00,,10.0,189
2003-10-27 13:00,,13.2,199
2003-10-27 14:00,,10.6,193
2003-10-27 15:00,,10.8,192
2003-10-27 16:00,,10.3,188
2003-10-27 17:00,,11.6,186
2003-10-27 18:00,,10.9,184
2003-10-27 19:00,,10.1,180
2003-10-27 20:00,,10.5,178
2003-10-27 21:00,,10.7,181
2003-10-27 22:00,,10.6,178
2003-10-27 23:00,,9.0,177
2003-10-28 00:00,,11.3,174
2003-10-28 01:00,,13.9,165
2003-10-28 02:00,,14.3,179
2003-10-28 03:00,,15.7,182
2003-10-28 04:00,,14.4,183
2003-10-28 05:00,,16.2,195
2003-10-28 06:00,,13.3,218
2003-10-28 07:00,,9.4,207
2003-10-28 08:00,,10.8,214
2003-10-28 09:00,,11.2,224
2003-10-28 10:00,,11.4,239
2003-10-28 11:00,,10.1,260
2003-10-28 12:00,,10.8,304
2003-10-28 13:00,,8.1,307
2003-10-28 14:00,,5.9,311
2003-10-28 15:00,,4.5,305
2003-10-28 16:00,,3.1,299
2003-10-28 17:00,,3.1,322
2003-10-28 18:00,,1.6,221
2003-10-28 19:00,,1.1,225
2003-10-28 20:00,,2.7,181
2003-10-28 21:00,,2.5,177
2003-10-28 22:00,,3.1,169
2003-10-28 23:00,,3.3,141
2003-10-29 00:00,,3.7,157
2003-10-29 01:00,,4.2,138
2003-10-29 02:00,,3.6,146
2003-10-29 03:00,,3.7,111
2003-10-29 04:00,,4.4,111
2003-10-29 05:00,,5.1,102
2003-10-29 06:00,,5.2, 98
2003-10-29 07:00,,6.1, 74
2003-10-29 08:00,,8.4, 67
2003-10-29 09:00,,9.5, 84
2003-10-29 10:00,,11.6, 79
2003-10-29 11:00,,12.3, 77
2003-10-29 12:00,,14.0, 79
2003-10-29 13:00,,16.4, 75
2003-10-29 14:00,,10.4, 97
2003-10-29 15:00,,10.7,168
2003-10-29 16:00,,11.4,169
2003-10-29 17:00,,12.0,166
2003-10-29 18:00,,13.6,166
2003-10-29 19:00,,14.4,168
2003-10-29 20:00,,14.0,163
2003-10-29 21:00,,14.2,171
2003-10-29 22:00,,13.7,165
2003-10-29 23:00,,12.9,191
2003-10-30 00:00,,13.0,186
2003-10-30 01:00,,10.6,196
2003-10-30 02:00,,12.5,221
2003-10-30 03:00,,10.9,221
2003-10-30 04:00,,13.0,233
2003-10-30 05:00,,11.7,249
2003-10-30 06:00,,13.1,259
2003-10-30 07:00,,11.2,261
2003-10-30 08:00,,10.5,267
2003-10-30 09:00,,10.9,272
2003-10-30 10:00,,8.9,267
2003-10-30 11:00,,9.3,263
2003-10-30 12:00,,10.1,259
2003-10-30 13:00,,10.5,253
2003-10-30 14:00,,11.2,261
2003-10-30 15:00,,11.2,263
2003-10-30 16:00,,11.9,254
2003-10-30 17:00,,12.0,264
2003-10-30 18:00,,11.2,252
2003-10-30 19:00,,10.1,256
2003-10-30 20:00,,8.8,244
2003-10-30 21:00,,7.0,229
2003-10-30 22:00,,7.2,283
2003-10-30 23:00,,5.3,236
2003-10-31 00:00,,7.2,262
2003-10-31 01:00,,6.0,256
2003-10-31 02:00,,6.1,258
2003-10-31 03:00,,5.9,260
2003-10-31 04:00,,6.1,266
2003-10-31 05:00,,5.9,272
2003-10-31 06:00,,5.9,283
2003-10-31 07:00,,1.6,282
2003-10-31 08:00,,3.7,296
2003-10-31 09:00,,2.9,226
2003-10-31 10:00,,3.2,244
2003-10-31 11:00,,2.4,244
2003-10-31 12:00,,2.5,210
2003-10-31 13:00,,2.2,211
2003-10-31 14:00,,1.3,186
2003-10-31 15:00,,2.5,164
2003-10-31 16:00,,5.3,182
2003-10-31 17:00,,5.0,192
2003-10-31 18:00,,5.2,193
2003-10-31 19:00,,5.7,191
2003-10-31 20:00,,6.1,196
2003-10-31 21:00,,6.5,201
2003-10-31 22:00,,8.0,209
2003-10-31 23:00,,8.0,210
2003-11-01 00:00,,8.7,205
2003-11-01 01:00,,8.3,196
2003-11-01 02:00,,9.6,203
2003-11-01 03:00,,9.6,212
2003-11-01 04:00,,8.6,219
2003-11-01 05:00,,9.2,217
2003-11-01 06:00,,8.7,210
2003-11-01 07:00,,8.0,219
2003-11-01 08:00,,8.5,226
2003-11-01 09:00,,8.4,227
2003-11-01 10:00,,10.9,225
2003-11-01 11:00,,8.2,227
2003-11-01 12:00,,8.1,235
2003-11-01 13:00,,7.6,234
2003-11-01 14:00,,4.7,221
2003-11-01 15:00,,9.6,227
2003-11-01 16:00,,8.5,233
2003-11-01 17:00,,7.8,233
2003-11-01 18:00,,5.3,232
2003-11-01 19:00,,2.0,211
2003-11-01 20:00,,6.2,268
2003-11-01 21:00,,6.3,248
2003-11-01 22:00,,4.9,257
2003-11-01 23:00,,4.7,243
2003-11-02 00:00,,4.2,283
2003-11-02 01:00,,2.8,278
2003-11-02 02:00,,3.3,323
2003-11-02 03:00,,7.5,  5
2003-11-02 04:00,,7.4,  3
2003-11-02 05:00,,7.8,354
2003-11-02 06:00,,8.8,  6
2003-11-02 07:00,,9.2,  4
2003-11-02 08:00,,8.4,  8